Location: Quedlinburg
(51.7921°N, 11.1414°E)
Time: 08:37:20
(UTC+02:00)

SO-50 - Pass Details

Date: 08 March 2026
Orbit: 567 x 673 km, 64.6° (Epoch: 13 April)

Event Time Altitude Azimuth Distance (km) Brightness Sun altitude
Rises 22:14:24 0° 257° (WSW) 2,961 ? -35.5°
Reaches altitude 10° 22:16:55 10° 268° (W) 2,068 ? -35.8°
Enters shadow 22:17:20 12° 271° (W) 1,930 ? -35.8°
